Regional Weather Roundup
Issued by NWS

Home | Current Version | Previous Version | Graphics & Text | Print | Product List | Glossary On
Versions: 1 2 3 4 5 6 7 8 9 10 11 12 13 14 15 16 17 18 19 20 21 22 23 24 25 26 27 28 29 30 31 32 33 34 35 36 37 38 39 40 41 42 43 44 45 46 47 48 49 50
000
ASUS44 KMEG 142100
RWRTN
TENNESSEE HOURLY STATE WEATHER ROUNDUP
NATIONAL WEATHER SERVICE MEMPHIS TN
400 PM CDT SUN SEP 14 2014

TNZ002-004-019-021-049-052-054-088>092-142200-
WEST TENNESSEE

CITY           SKY/WX    TMP DP  RH WIND       PRES   REMARKS
MEMPHIS INTL   PTSUNNY   76  55  48 VRB7      30.17F
NWS MEMPHIS      N/A     75 N/A N/A MISG        N/A
JACKSON        SUNNY     77  57  50 NE7       30.18F
DYERSBURG      SUNNY     73  50  43 N6        30.20F
PARIS          SUNNY     72  52  49 VRB5      30.20S
$$

TNZ008-025-027-028-033-062-065-066-142200-
NORTH MIDDLE TENNESSEE

CITY           SKY/WX    TMP DP  RH WIND       PRES   REMARKS
NASHVILLE      MOSUNNY   79  55  43 N6        30.18F
CLARKSVILLE    SUNNY     76  54  46 MISG      30.18F
COOKEVILLE     SUNNY     75  63  64 VRB7      30.18F
CROSSVILLE     PTSUNNY   75  61  61 NW3       30.20S
$$

TNZ061-075-076-078-094-096-097-142200-
SOUTH MIDDLE TENNESSEE

CITY           SKY/WX    TMP DP  RH WIND       PRES   REMARKS
SHELBYVILLE    SUNNY     81  63  54 NE6       30.17F
$$

TNZ017-018-042-046-047-142200-
NORTHEAST TENNESSEE

CITY           SKY/WX    TMP DP  RH WIND       PRES   REMARKS
TRI CITIES     CLOUDY    70  62  76 CALM      30.21S
$$

TNZ012-013-036-069-073-074-142200-
CENTRAL EAST TENNESSEE

CITY           SKY/WX    TMP DP  RH WIND       PRES   REMARKS
KNOXVILLE      CLOUDY    75  64  68 W5        30.16F
OAK RIDGE      PTSUNNY   75  64  68 VRB5      30.18F
$$

TNZ083-085-099-142200-
SOUTHEAST TENNESSEE

CITY           SKY/WX    TMP DP  RH WIND       PRES   REMARKS
CHATTANOOGA    PTSUNNY   80  66  62 VRB3      30.15F
$$

SKY/WX REPORTED AS FAIR MEANS FEW OR NO CLOUDS BELOW
12 THOUSAND FEET.




USA.gov is the U.S. government's official web portal to all federal, state and local government web resources and services.